Sault Ste Marie, MI

7:00 PM EDT on March 25, 2017 (GMT -0400)
Sault Ste Marie Municipal / Sanderson Field

Weather History for KANJ - August, 2013

Change the Weather History Date:

Friday, August 23, 2013

  Actual Average Record
Temperature  
Mean Temperature 64 °F 64 °F  
Max Temperature 76 °F 74 °F 96 °F (1947)
Min Temperature 52 °F 54 °F 38 °F (1958)
Degree Days  
Heating Degree Days 1 3  
Month to date heating degree days 66 49  
Since 1 June heating degree days 262 298  
Since 1 July heating degree days 116 118  
Cooling Degree Days 0 2  
Month to date cooling degree days 35 57  
Year to date cooling degree days 199 170  
Since 1 June cooling degree days 190 165  
Growing Degree Days 14 (Base 50)    
Moisture  
Dew Point 52 °F    
Average Humidity 66    
Maximum Humidity 93    
Minimum Humidity 38    
Precipitation  
Precipitation 0.00 in 0.10 in 1.18 in (1978)
Month to date precipitation 2.14 2.33  
Year to date precipitation 25.39 18.33  
Sea Level Pressure  
Sea Level Pressure 30.18 in    
Wind  
Wind Speed 3 mph (WSW)    
Max Wind Speed 9 mph    
Max Gust Speed 11 mph    
Visibility 10 miles    
Events      
T = Trace of Precipitation, MM = Missing Value Source: NWS Daily Summary

Daily Weather History Graph

Daily Weather History Graph

Search for Another Location

Airport or City:

Trip Planner

Search our weather history database for the weather conditions in past years. The results will help you decide how hot, cold, wet, or windy it might be!

Date:

Astronomy

Aug. 23, 2013 Rise Set
Actual Time 6:46 AM EDT 8:32 PM EDT
Civil Twilight 6:14 AM EDT 9:04 PM EDT
Nautical Twilight 5:35 AM EDT 9:43 PM EDT
Astronomical Twilight 4:52 AM EDT 10:26 PM EDT
Moon 9:35 PM EDT (8/23) 9:54 AM EDT (8/23)
Length of Visible Light 14h 50m
Length of Day
13h 46m
Waning Gibbous, 91% of the Moon is Illuminated
Aug 23
Waning Gibbous
Aug 28
Last Quarter
Sep 5
New
Sep 12
First Quarter
Sep 19
Full

Hourly Weather History & Observations

Time (EDT) Temp. Dew Point Humidity Pressure Visibility Wind Dir Wind Speed Gust Speed Precip Events Conditions
12:55 AM 60.1 °F 55.0 °F 83% 30.12 in 10.0 mi Calm Calm - N/A   Clear
1:55 AM 60.1 °F 53.1 °F 78% 30.12 in 10.0 mi NNE 3.5 mph - N/A   Clear
2:55 AM 55.9 °F 52.0 °F 87% 30.13 in 10.0 mi Calm Calm - N/A   Clear
3:55 AM 54.0 °F 51.1 °F 90% 30.15 in 10.0 mi Calm Calm - N/A   Clear
4:55 AM 53.1 °F 51.1 °F 93% 30.16 in 10.0 mi Calm Calm - N/A   Clear
5:55 AM 53.1 °F 51.1 °F 93% 30.18 in 10.0 mi Calm Calm - N/A   Clear
6:55 AM 52.0 °F 48.9 °F 89% 30.19 in 10.0 mi Calm Calm - N/A   Clear
7:55 AM 57.0 °F 53.1 °F 87% 30.21 in 10.0 mi ENE 4.6 mph - N/A   Clear
8:55 AM 60.1 °F 53.1 °F 78% 30.22 in 10.0 mi ENE 4.6 mph - N/A   Clear
9:55 AM 64.9 °F 54.0 °F 68% 30.22 in 10.0 mi Variable 3.5 mph - N/A   Clear
10:55 AM 66.9 °F 54.0 °F 63% 30.22 in 10.0 mi Variable 4.6 mph - N/A   Clear
11:55 AM 69.1 °F 53.1 °F 57% 30.22 in 10.0 mi Calm Calm - N/A   Clear
12:55 PM 71.1 °F 53.1 °F 53% 30.22 in 10.0 mi Calm Calm - N/A   Clear
1:55 PM 72.0 °F 50.0 °F 46% 30.21 in 10.0 mi West 3.5 mph - N/A   Clear
2:55 PM 72.0 °F 51.1 °F 48% 30.20 in 10.0 mi SSW 5.8 mph - N/A   Partly Cloudy
3:55 PM 75.9 °F 52.0 °F 43% 30.18 in 10.0 mi Variable 4.6 mph - N/A   Partly Cloudy
4:55 PM 75.9 °F 50.0 °F 40% 30.17 in 10.0 mi NW 4.6 mph - N/A   Clear
5:55 PM 75.0 °F 48.9 °F 40% 30.17 in 10.0 mi West 4.6 mph - N/A   Clear
6:55 PM 75.0 °F 50.0 °F 41% 30.16 in 10.0 mi Calm Calm - N/A   Clear
7:55 PM 69.1 °F 55.0 °F 61% 30.16 in 10.0 mi South 9.2 mph - N/A   Clear
8:55 PM 66.0 °F 55.0 °F 68% 30.18 in 10.0 mi SSW 4.6 mph - N/A   Clear
9:55 PM 63.0 °F 53.1 °F 70% 30.18 in 10.0 mi SSW 5.8 mph - N/A   Clear
10:55 PM 61.0 °F 53.1 °F 75% 30.20 in 10.0 mi Calm Calm - N/A   Clear
11:55 PM 59.0 °F 52.0 °F 78% 30.21 in 10.0 mi Calm Calm - N/A   Clear